TimeEST,TemperatureF,Dew PointF,Humidity,Sea Level PressureIn,VisibilityMPH,Wind Direction,Wind SpeedMPH,Gust SpeedMPH,PrecipitationIn,Events,Conditions,WindDirDegrees,DateUTC
12:53 AM,64.0,57.0,78,29.98,10.0,NNW,8.1,-,N/A,,Scattered Clouds,340,2013-02-28 05:53:00
1:53 AM,62.1,55.9,80,29.96,10.0,North,5.8,-,N/A,,Clear,350,2013-02-28 06:53:00
2:53 AM,61.0,55.0,81,29.97,10.0,North,5.8,-,N/A,,Overcast,360,2013-02-28 07:53:00
3:53 AM,61.0,54.0,78,29.97,10.0,North,5.8,-,N/A,,Mostly Cloudy,10,2013-02-28 08:53:00
4:53 AM,60.1,53.1,78,29.97,10.0,North,6.9,-,N/A,,Partly Cloudy,360,2013-02-28 09:53:00
5:53 AM,61.0,53.1,75,29.98,10.0,NNE,3.5,-,N/A,,Clear,20,2013-02-28 10:53:00
6:53 AM,61.0,53.1,75,29.99,10.0,North,4.6,-,N/A,,Clear,10,2013-02-28 11:53:00
7:53 AM,62.1,53.1,72,30.00,10.0,NNE,5.8,-,N/A,,Scattered Clouds,20,2013-02-28 12:53:00
8:53 AM,63.0,52.0,67,30.02,10.0,North,9.2,-,N/A,,Mostly Cloudy,10,2013-02-28 13:53:00
9:53 AM,64.0,53.1,67,30.03,-9999.0,North,-9999.0,-,N/A,,Overcast,0,2013-02-28 14:53:00
10:53 AM,64.9,53.1,65,30.04,10.0,North,4.6,-,N/A,,Overcast,360,2013-02-28 15:53:00
11:53 AM,68.0,53.1,59,30.01,10.0,Variable,4.6,-,N/A,,Scattered Clouds,0,2013-02-28 16:53:00
12:53 PM,72.0,51.1,48,29.99,10.0,North,8.1,-,N/A,,Partly Cloudy,350,2013-02-28 17:53:00
1:53 PM,73.0,51.1,46,29.95,10.0,WNW,8.1,-,N/A,,Clear,300,2013-02-28 18:53:00
2:53 PM,73.0,52.0,48,29.95,10.0,WNW,10.4,-,N/A,,Clear,300,2013-02-28 19:53:00
4:53 PM,72.0,52.0,49,29.94,10.0,WNW,13.8,-,N/A,,Clear,290,2013-02-28 21:53:00
5:53 PM,69.1,53.1,57,29.96,10.0,WNW,13.8,-,N/A,,Clear,300,2013-02-28 22:53:00
7:53 PM,66.0,54.0,65,29.96,10.0,WNW,6.9,-,N/A,,Clear,290,2013-03-01 00:53:00
8:53 PM,64.9,54.0,68,29.98,10.0,West,5.8,-,N/A,,Mostly Cloudy,280,2013-03-01 01:53:00
9:53 PM,64.9,55.0,70,29.98,10.0,Calm,Calm,-,N/A,,Scattered Clouds,0,2013-03-01 02:53:00
10:53 PM,66.0,55.0,68,29.96,10.0,Calm,Calm,-,N/A,,Overcast,0,2013-03-01 03:53:00
11:53 PM,64.9,55.9,73,29.96,10.0,NNW,4.6,-,N/A,,Mostly Cloudy,330,2013-03-01 04:53:00